Location: Aydie
(43.5695°N, 0.1043°W)
Time: 06:08:14
(UTC+00:00)

YAOGAN 1 - Pass Details

Date: 17 November 2025
Orbit: 605 x 607 km, 97.8° (Epoch: 04 December)

Event Time Altitude Azimuth Distance (km) Brightness Sun altitude
Rises 18:03:38 0° 153° (SSE) 2,852 5.8 -16.3°
Reaches altitude 10° 18:05:51 10° 148° (SSE) 1,952 4.9 -16.7°
Maximum altitude 18:09:57 51° 73° (ENE) 771 2.6 -17.4°
Drops below altitude 10° 18:14:05 10° 358° (N) 1,966 5.1 -18.2°
Sets 18:16:19 0° 353° (N) 2,874 6.0 -18.5°
